[[{"header":{"parameterUnit":"m.s-1","parameterCategory":1,"la1":30.2991,"la2":30.254,"lo1":-89.0895,"lo2":-89.0444,"dy":0.0017,"dx":0.0017,"nx":28,"ny":28,"refTime":"2023-10-13T09:00:00:Z","depth":0,"parameterNumber":2,"parameterNumberName":"U-component_of_WINDS"},"data":[0,0,0,0,0,0,0,0,0,0,0,0,0,0,0,0,0,0,0,0,0,0,0,0,0,0,0,0,0,0,0,0,0,0,0,0,0,0,0,0,0,0,0,0,0,0,0,0,0,0,0,0,0,0,0,0,0,0,-1.6615,-1.6616,0,-1.6645,-1.6645,-1.6645,-1.6584,-1.6582,-1.658,-1.6578,-1.6608,-1.6611,-1.6613,0,0,0,0,0,0,0,0,0,0,0,0,0,-1.6506,-1.6508,-1.6615,-1.6616,-1.6616,-1.6645,-1.6645,-1.6645,-1.6584,-1.6582,-1.6579,-1.6577,-1.6607,-1.661,-1.6613,0,0,0,0,0,0,0,0,0,0,0,0,0,-1.6546,-1.6509,-1.6615,-1.6589,-1.6587,-1.6645,-1.6645,-1.6645,-1.6585,-1.6582,-1.6579,-1.6576,-1.6606,-1.661,-1.6614,-1.6698,0,0,-1.6626,-1.6628,0,0,0,0,0,0,0,0,-1.6544,-1.655,-1.6592,-1.6591,-1.6589,-1.6607,-1.6617,-1.6663,-1.6585,-1.6586,-1.6578,-1.6574,-1.661,-1.6614,-1.6626,-1.67,-1.6701,-1.6626,-1.6629,-1.6631,-1.6632,0,0,0,0,0,0,0,-1.6541,-1.6549,-1.6627,-1.6593,-1.6591,-1.6575,-1.6578,-1.6626,-1.6614,-1.6585,-1.6581,-1.6585,-1.6609,-1.6622,-1.6626,-1.6702,-1.6626,-1.663,-1.6632,-1.6634,-1.6846,-1.6849,0,0,0,0,0,0,-1.6542,-1.6547,-1.6626,-1.6628,-1.6558,-1.658,-1.6583,-1.6605,-1.6614,-1.6612,-1.6588,-1.6582,-1.6617,-1.6621,-1.6627,-1.6726,-1.6631,-1.6634,-1.6637,-1.6842,-1.6846,-1.685,0,0,0,0,0,0,-1.654,-1.6549,-1.6625,-1.6586,-1.6594,-1.6585,-1.661,-1.6607,-1.662,-1.6615,-1.6613,-1.6604,-1.6615,-1.6621,-1.6681,-1.6726,-1.6636,-1.664,-1.6839,-1.6844,-1.6848,-1.6926,0,0,0,0,0,0,-1.6537,-1.6549,-1.6581,-1.6587,-1.6597,-1.6679,-1.6613,-1.6609,-1.6627,-1.662,-1.663,-1.6629,-1.6613,-1.6675,-1.6685,-1.673,-1.6643,-1.6835,-1.6841,-1.6847,-1.6919,-1.6933,-1.6944,0,0,0,0,0,-1.6533,-1.6602,-1.6583,-1.6593,-1.6637,-1.6682,-1.6687,-1.6668,-1.6631,-1.6663,-1.666,-1.6628,-1.672,-1.6682,-1.6692,-1.6739,-1.6832,-1.6839,-1.6846,-1.6913,-1.693,-1.6944,0,0,0,0,0,0,-1.6602,-1.6603,-1.6582,-1.6655,-1.6669,-1.6671,-1.6711,-1.6686,-1.671,-1.6703,-1.6677,-1.668,-1.6745,-1.6748,-1.6706,-1.6821,-1.6769,-1.6779,-1.6817,-1.6833,-1.6845,-1.6843,-1.6646,0,0,0,0,0,-1.6626,-1.6662,-1.666,-1.6725,-1.6733,-1.6721,-1.674,-1.6724,-1.6737,-1.6743,-1.6744,-1.6758,-1.679,-1.6811,-1.684,-1.6919,-1.692,-1.6956,-1.6969,-1.6979,-1.6988,-1.7029,-1.7045,-1.6874,-1.6874,-1.6874,0,0,-1.6675,-1.668,-1.6705,-1.6739,-1.6748,-1.6786,-1.6727,-1.677,-1.6797,-1.6749,-1.6805,-1.6807,-1.6821,-1.689,-1.6921,-1.6895,-1.7036,-1.6989,-1.6997,-1.7,-1.7038,-1.7055,-1.7069,-1.6879,-1.6878,-1.6877,0,0,-1.6785,-1.6792,-1.6847,-1.6857,-1.6871,-1.6862,-1.6875,-1.6881,-1.6881,-1.6937,-1.6901,-1.6933,-1.6989,-1.7,-1.7013,-1.7126,-1.7098,-1.7136,-1.7202,-1.7243,-1.7256,-1.7268,-1.7308,-1.7323,-1.7145,-1.7145,-1.7145,0,-1.6845,-1.6901,-1.6878,-1.6923,-1.6939,-1.6897,-1.6952,-1.6962,-1.6985,-1.6997,-1.6967,-1.7036,-1.7042,-1.7113,-1.7141,-1.7153,-1.7167,-1.7135,-1.7256,-1.7268,-1.7279,-1.7317,-1.7332,-1.715,-1.7149,-1.7149,-1.7148,0,-1.6973,-1.7013,-1.7055,-1.7078,-1.7099,-1.7149,-1.7133,-1.7157,-1.7138,-1.7133,-1.719,-1.7196,-1.7225,-1.7241,-1.7224,-1.731,-1.7293,-1.726,-1.7208,-1.73,-1.7335,-1.735,-1.7156,-1.7155,-1.7153,-1.7152,0,0,-1.7128,-1.7137,-1.7153,-1.7163,-1.7175,-1.7205,-1.7252,-1.7281,-1.7301,-1.7318,-1.7357,-1.7405,-1.7374,-1.7389,-1.7372,-1.7408,-1.7497,-1.7371,-1.737,-1.7394,-1.7592,-1.7617,-1.7634,-1.7477,-1.748,-1.7482,-1.759,0,-1.7237,-1.7319,-1.7299,-1.738,-1.7416,-1.7376,-1.7417,-1.7429,-1.7425,-1.7454,-1.7449,-1.7483,-1.744,-1.7449,-1.7482,-1.7479,-1.7536,-1.7471,-1.7514,-1.7515,-1.7512,-1.7652,-1.7679,-1.7781,-1.7604,-1.7606,-1.7608,0,-1.7375,-1.7397,-1.7481,-1.7487,-1.7501,-1.7539,-1.7563,-1.7591,-1.7603,-1.7598,-1.7614,-1.759,-1.7637,-1.7583,-1.7647,-1.7603,-1.7619,-1.762,-1.7623,-1.7627,-1.7568,-1.766,-1.7813,-1.7828,-1.763,-1.7628,-1.7626,0,-1.7479,-1.753,-1.7587,-1.7596,-1.7604,-1.7631,-1.7636,-1.7645,-1.7663,-1.7684,-1.7695,-1.7722,-1.7736,-1.7757,-1.774,-1.7703,-1.7806,-1.7752,-1.7803,-1.7804,-1.7827,-1.7826,-1.7985,-1.7837,-1.7837,-1.7837,-1.7836,0,-1.7602,-1.7656,-1.7634,-1.7669,-1.7727,-1.7704,-1.7762,-1.7762,-1.777,-1.7804,-1.7771,-1.7804,-1.778,-1.781,-1.7798,-1.7852,-1.7859,-1.7855,-1.7851,-1.7859,-1.7859,-1.7869,-1.7862,-1.7841,-1.784,-1.7839,-1.7838,0,-1.7729,-1.7717,-1.7776,-1.7778,-1.778,-1.7823,-1.7825,-1.7857,-1.785,-1.7894,-1.7902,-1.7892,-1.7926,-1.7911,-1.7947,-1.7939,-1.8009,-1.7995,-1.8005,-1.8001,-1.8053,-1.8049,-1.8225,-1.8247,-1.8085,-1.8086,-1.8088,0,-1.7809,-1.7849,-1.7855,-1.7876,-1.7883,-1.7916,-1.7934,-1.7912,-1.7933,-1.7949,-1.798,-1.8011,-1.8034,-1.8091,-1.8086,-1.8113,-1.81,-1.816,-1.8104,-1.811,-1.8101,-1.8099,-1.8103,-1.8171,-1.8173,-1.8175,-1.8176,0,-1.7952,-1.7943,-1.7971,-1.7997,-1.8019,-1.8038,-1.8054,-1.8073,-1.8051,-1.8076,-1.811,-1.8129,-1.8165,-1.8197,-1.822,-1.8224,-1.8197,-1.8193,-1.8207,-1.8215,-1.8219,-1.8217,-1.8035,-1.819,-1.8188,-1.8187,-1.8187,-1.8186,-1.8058,-1.8091,-1.8101,-1.8132,-1.8142,-1.8158,-1.8188,-1.8185,-1.8213,-1.8241,-1.8226,-1.8266,-1.8276,-1.8306,-1.8313,-1.8344,-1.8321,-1.834,-1.8345,-1.835,-1.8357,-1.8214,-1.8348,-1.8348,-1.8347,-1.8347,-1.8347,0,-1.8199,-1.8203,-1.8232,-1.8255,-1.828,-1.8252,-1.8268,-1.829,-1.8326,-1.8338,-1.8362,-1.8401,-1.8431,-1.8428,-1.8456,-1.8481,-1.8469,-1.8489,-1.8487,-1.8488,-1.8376,-1.8362,-1.8498,-1.8498,-1.8498,-1.8498,-1.8498,-1.8498,-1.8275,-1.833,-1.8323,-1.8382,-1.8385,-1.8424,-1.8436,-1.845,-1.8459,-1.8505,-1.8529,-1.8527,-1.8533,-1.856,-1.8587,-1.8585,-1.8597,-1.8621,-1.8615,-1.8511,-1.8496,-1.8482,-1.8468,-1.8624,-1.8624,-1.8724,-1.8725,-1.8726]},{"header":{"parameterUnit":"m.s-1","parameterCategory":1,"la1":30.2991,"la2":30.254,"lo1":-89.0895,"lo2":-89.0444,"dy":0.0017,"dx":0.0017,"nx":28,"ny":28,"refTime":"2023-10-13T09:00:00:Z","depth":0,"parameterNumber":3,"parameterNumberName":"V-component_of_WINDS"},"data":[0,0,0,0,0,0,0,0,0,0,0,0,0,0,0,0,0,0,0,0,0,0,0,0,0,0,0,0,0,0,0,0,0,0,0,0,0,0,0,0,0,0,0,0,0,0,0,0,0,0,0,0,0,0,0,0,0,0,-2.9995,-2.9996,0,-3.0059,-3.006,-3.0061,-3.0039,-3.0037,-3.0036,-3.0034,-3.0096,-3.0099,-3.0102,0,0,0,0,0,0,0,0,0,0,0,0,0,-2.985,-2.9852,-2.9995,-2.9996,-2.9997,-3.0059,-3.006,-3.0061,-3.0039,-3.0037,-3.0035,-3.0034,-3.0096,-3.0099,-3.0103,0,0,0,0,0,0,0,0,0,0,0,0,0,-2.9913,-2.9853,-2.9995,-2.9993,-2.9994,-3.0059,-3.006,-3.0061,-3.0039,-3.0037,-3.0035,-3.0033,-3.0094,-3.0099,-3.0103,-3.0173,0,0,-3.0117,-3.0119,0,0,0,0,0,0,0,0,-2.991,-2.9918,-2.9993,-2.9994,-2.9994,-3.0039,-3.0032,-3.0099,-3.004,-3.0022,-3.0034,-3.0032,-3.0079,-3.0084,-3.0101,-3.0176,-3.0178,-3.0117,-3.012,-3.0122,-3.0123,0,0,0,0,0,0,0,-2.9905,-2.9916,-3.0021,-2.9994,-2.9995,-2.9988,-2.9995,-3.0044,-3.0061,-3.0023,-3.0022,-3.003,-3.0079,-3.0097,-3.0102,-3.0179,-3.0117,-3.0121,-3.0124,-3.0125,-3.0313,-3.0315,0,0,0,0,0,0,-2.9901,-2.9912,-3.0018,-3.0022,-2.9946,-2.9992,-3.0,-3.0027,-3.0061,-3.0064,-3.0032,-3.0029,-3.009,-3.0097,-3.0104,-3.0188,-3.0122,-3.0126,-3.0128,-3.0311,-3.0314,-3.0316,0,0,0,0,0,0,-2.9898,-2.9911,-3.0016,-2.9967,-2.998,-2.9997,-3.0027,-3.0029,-3.0047,-3.0067,-3.007,-3.0047,-3.0089,-3.0098,-3.0156,-3.0189,-3.0128,-3.0132,-3.0308,-3.0312,-3.0315,-3.0355,0,0,0,0,0,0,-2.9894,-2.991,-2.9937,-2.9968,-2.9983,-3.0068,-3.003,-3.0032,-3.0055,-3.0052,-3.0082,-3.0085,-3.0088,-3.0149,-3.016,-3.0194,-3.0135,-3.0305,-3.031,-3.0314,-3.0351,-3.0359,-3.0367,0,0,0,0,0,-2.9889,-2.9946,-2.9939,-2.9952,-3.0018,-3.007,-3.0078,-3.0081,-3.0058,-3.0085,-3.0098,-3.0084,-3.0184,-3.0156,-3.0168,-3.0203,-3.0303,-3.0308,-3.0313,-3.0347,-3.0358,-3.0367,0,0,0,0,0,0,-2.9918,-2.995,-2.9943,-3.0011,-3.0038,-3.0066,-3.01,-3.0092,-3.0125,-3.0121,-3.0122,-3.0129,-3.0188,-3.0201,-3.0169,-3.0272,-3.024,-3.0248,-3.0261,-3.0271,-3.0279,-3.0275,-3.0139,0,0,0,0,0,-2.9932,-2.9973,-2.9998,-3.0056,-3.007,-3.0083,-3.0106,-3.0106,-3.0133,-3.0144,-3.0161,-3.0187,-3.0224,-3.0249,-3.0284,-3.0352,-3.0358,-3.0383,-3.0391,-3.0398,-3.0404,-3.044,-3.0452,-3.0333,-3.0333,-3.0333,0,0,-2.9962,-2.9985,-3.001,-3.0063,-3.0083,-3.0124,-3.0093,-3.0138,-3.0168,-3.015,-3.0206,-3.022,-3.0249,-3.0312,-3.0341,-3.0325,-3.0438,-3.0404,-3.0409,-3.0412,-3.0447,-3.0458,-3.0468,-3.0337,-3.0336,-3.0336,0,0,-3.0038,-3.006,-3.011,-3.0132,-3.0164,-3.0172,-3.0184,-3.0213,-3.0222,-3.0278,-3.0266,-3.0301,-3.0365,-3.0386,-3.0405,-3.0488,-3.0476,-3.05,-3.0541,-3.0577,-3.0586,-3.0594,-3.0623,-3.0634,-3.0506,-3.0506,-3.0506,0,-3.0071,-3.0134,-3.0137,-3.0183,-3.0205,-3.0193,-3.0243,-3.0263,-3.0305,-3.032,-3.0303,-3.0383,-3.0401,-3.0469,-3.0489,-3.0505,-3.0518,-3.0496,-3.0585,-3.0593,-3.0601,-3.0628,-3.0639,-3.0509,-3.0509,-3.0508,-3.0508,0,-3.0172,-3.0215,-3.0252,-3.0294,-3.032,-3.0368,-3.0377,-3.0404,-3.0401,-3.0411,-3.0468,-3.049,-3.0529,-3.0545,-3.0543,-3.0612,-3.0601,-3.0584,-3.0552,-3.0614,-3.064,-3.0651,-3.0513,-3.0512,-3.0511,-3.051,0,0,-3.0268,-3.0311,-3.0324,-3.0342,-3.0377,-3.041,-3.0456,-3.0496,-3.0518,-3.0547,-3.0585,-3.064,-3.0624,-3.0645,-3.0645,-3.0676,-3.074,-3.0655,-3.0656,-3.0669,-3.0817,-3.0829,-3.0841,-3.0732,-3.0734,-3.0736,-3.0814,0,-3.0346,-3.0429,-3.0433,-3.0508,-3.0547,-3.0536,-3.0576,-3.0601,-3.0611,-3.0645,-3.0655,-3.0694,-3.067,-3.0683,-3.0714,-3.0726,-3.0769,-3.072,-3.0767,-3.0768,-3.0759,-3.0855,-3.0868,-3.0941,-3.0824,-3.0826,-3.0827,0,-3.0448,-3.0481,-3.0561,-3.0589,-3.0605,-3.0642,-3.0678,-3.0711,-3.0738,-3.0743,-3.0767,-3.0762,-3.0808,-3.0775,-3.0838,-3.0804,-3.0823,-3.0832,-3.0835,-3.0839,-3.0801,-3.0861,-3.0964,-3.0975,-3.0843,-3.0842,-3.0841,0,-3.0509,-3.0573,-3.0629,-3.0645,-3.068,-3.0705,-3.0721,-3.0746,-3.0769,-3.08,-3.0815,-3.0851,-3.087,-3.0897,-3.0901,-3.0877,-3.0964,-3.0931,-3.0969,-3.0969,-3.0987,-3.0986,-3.1095,-3.1001,-3.1,-3.1,-3.1,0,-3.0595,-3.0644,-3.0657,-3.0691,-3.0745,-3.0748,-3.0801,-3.0814,-3.0837,-3.0872,-3.0864,-3.0897,-3.0901,-3.0935,-3.0939,-3.099,-3.0999,-3.1003,-3.1003,-3.1004,-3.1003,-3.1016,-3.1011,-3.1003,-3.1003,-3.1002,-3.1001,0,-3.0673,-3.0683,-3.0743,-3.0771,-3.0779,-3.0817,-3.0841,-3.0873,-3.0882,-3.0927,-3.0937,-3.0951,-3.0991,-3.0998,-3.1044,-3.1046,-3.1107,-3.1103,-3.1098,-3.1098,-3.1135,-3.1131,-3.1255,-3.1271,-3.1167,-3.1168,-3.1169,0,-3.0727,-3.0764,-3.0796,-3.082,-3.0837,-3.0875,-3.0899,-3.0903,-3.0928,-3.0962,-3.0989,-3.1028,-3.106,-3.1123,-3.1136,-3.1171,-3.1167,-3.1208,-3.1172,-3.1171,-3.1167,-3.1165,-3.1168,-3.1215,-3.1216,-3.1217,-3.1218,0,-3.0822,-3.0825,-3.0861,-3.0898,-3.0927,-3.0956,-3.0983,-3.1003,-3.101,-3.1038,-3.1079,-3.1104,-3.1151,-3.1189,-3.1224,-3.1238,-3.1229,-3.1229,-3.1239,-3.124,-3.1236,-3.1238,-3.1117,-3.1226,-3.1225,-3.1225,-3.1224,-3.1224,-3.0889,-3.0921,-3.0949,-3.0988,-3.101,-3.1035,-3.1067,-3.108,-3.1115,-3.1154,-3.1154,-3.1199,-3.1224,-3.127,-3.1287,-3.132,-3.1307,-3.1322,-3.1326,-3.133,-3.1333,-3.1231,-3.1327,-3.1327,-3.1326,-3.1326,-3.1326,0,-3.0983,-3.1,-3.1036,-3.1075,-3.1106,-3.1096,-3.1125,-3.1151,-3.1191,-3.1216,-3.1247,-3.1293,-3.133,-3.1347,-3.1383,-3.1407,-3.1403,-3.1416,-3.1414,-3.1417,-3.1343,-3.133,-3.1418,-3.1418,-3.1418,-3.1418,-3.1418,-3.1418,-3.1036,-3.109,-3.1096,-3.116,-3.1177,-3.1221,-3.1239,-3.1262,-3.1282,-3.1334,-3.1365,-3.1376,-3.1397,-3.1435,-3.1468,-3.1471,-3.1485,-3.1499,-3.1501,-3.1432,-3.1422,-3.1413,-3.1401,-3.1502,-3.1503,-3.1572,-3.1573,-3.1573]}]]